Weather in Makhmud-Mekteb

Russia / Stavropol Krai     44°26′14″N   45°12′20″E
temp.,
°C
wind,
m/s
gust,
m/s
humid.,
%
clouds,
%
prec.,
mm/h
press.,
hPa
HPBL,
m
20 june, sun
sun2000:00+22ene817555 0.0 1014520
03:00+22e71563100 0.0 1013490
06:00+25e8175931 0.0 1011640
09:00+32ese1014280 0.0 10101065
12:00+36ese13192096 0.0 10101925
15:00+35ese131720100 0.0 10101511
18:00+30ese1018293 0.0 10101099
21:00+26e918300 0.0 1012845
21 june, mon
mon2100:00+25e917320 0.0 1011747
03:00+25ese817325 0.0 1011640
06:00+25ese815400 0.0 1012766
09:00+31ese1216250 0.0 10111187
12:00+35ese1316140 0.0 10101835
15:00+35ese1316130 0.0 10101825
18:00+31e1117180 0.0 10101281
21:00+26e9162891 0.0 1011794
22 june, tue
tue2200:00+25e9173699 0.0 1011697
03:00+25e8173515 0.0 1010701
06:00+26ese817354 0.0 1010765
09:00+32ese813213 0.0 10111168
12:00+38ese1215105 0.0 10092385
15:00+37ese1315120 0.0 10092205
18:00+34ese1117170 0.0 10091586
21:00+29e101828100 0.0 1010864
23 june, wed
wed2300:00+27e81646100 0.0 1009746
03:00+26e71247100 0.0 1010488
06:00+26se81346100 0.0 1011626
09:00+30se78345 0.1 1012870
12:00+36se812190 0.0 10112003
15:00+37ese1012150 0.0 10112250
18:00+31e911250 0.0 10131162
21:00+25e612430 0.0 1015370
24 june, thu
thu2400:00+23ene510470 0.0 1014282
03:00+22e47550 0.0 1013135
06:00+24ese38480 0.0 1014294
09:00+31e57250 0.0 1013854
12:00+38ese911120 0.0 10112592
15:00+38ese1212110 0.0 10112726
18:00+35ese810150 0.0 10121809
21:00+27ene610330 0.0 1013196